User: anonymous   Login
Location: Unspecified
(0.0000°N, 0.0000°E)
Time: 21:30:13
(UTC+00:00)
Language:

STARLINK-34153 - Orbit

View from above orbital plane
View from above orbital plane
View from above satellite
View from above satellite

Ground track
Ground track

The orbit is defined by the following mean orbital elements,

1 63967U          26145.34616081 +.00000000 +00000-0 +75262-3 0 00006
2 63967  43.0029 102.9775 0001762 267.2036  92.8614 15.27584568    05
Epoch (UTC): 25 May 2026 08:18:28
Eccentricity: 0.0001762
inclination: 43.0029°
perigee height: 482 km
apogee height: 484 km
right ascension of ascending node: 102.9775°
argument of perigee: 267.2036°
revolutions per day: 15.27584568
mean anomaly at epoch: 92.8614°

The dashed part of the orbit path shows where the satellite is in the earth's shadow,  

DLR